QPF
0.06 0.04 0.02 0.03 0.03 0.03 0.03 0.03 0.04 0.05 0.04 0.04 0.03 0.04 0.05 0.05 0.05 0.05 0.04 0.05 0.04 0.04 0.04 0.04 0.04 0.05 0.09 0.15 0.18 0.18 0.14 0.08 0.05 0.04 0.04 0.04 0.05 0.05 0.05 0.05 0.07 0.09 0.06
0.05 0.04 0.02 0.02 0.03 0.03 0.04 0.04 0.05 0.06 0.04 0.05 0.05 0.04 0.04 0.05 0.06 0.06 0.05 0.05 0.06 0.05 0.04 0.03 0.04 0.05 0.05 0.07 0.09 0.12 0.12 0.10 0.05 0.05 0.06 0.05 0.05 0.05 0.05 0.07 0.07 0.09 0.08
0.04 0.04 0.03 0.04 0.03 0.03 0.04 0.05 0.05 0.06 0.04 0.05 0.07 0.07 0.05 0.06 0.07 0.08 0.06 0.06 0.05 0.04 0.03 0.03 0.04 0.04 0.05 0.06 0.06 0.07 0.09 0.10 0.08 0.06 0.08 0.13 0.09 0.05 0.05 0.07 0.09 0.11 0.09
0.03 0.03 0.03 0.05 0.03 0.03 0.04 0.05 0.05 0.05 0.06 0.07 0.08 0.07 0.06 0.07 0.07 0.07 0.06 0.06 0.04 0.04 0.04 0.05 0.05 0.04 0.05 0.05 0.05 0.05 0.08 0.11 0.12 0.11 0.12 0.14 0.14 0.09 0.07 0.06 0.07 0.09 0.08
0.02 0.02 0.03 0.05 0.03 0.02 0.03 0.06 0.08 0.08 0.07 0.08 0.09 0.08 0.07 0.08 0.07 0.07 0.07 0.06 0.05 0.04 0.05 0.06 0.04 0.04 0.05 0.04 0.04 0.06 0.14 0.17 0.19 0.15 0.13 0.14 0.14 0.11 0.09 0.07 0.06 0.07 0.08
0.01 0.01 0.03 0.03 0.03 0.03 0.07 0.14 0.14 0.10 0.07 0.06 0.06 0.07 0.07 0.07 0.07 0.07 0.05 0.04 0.04 0.04 0.04 0.03 0.03 0.03 0.04 0.03 0.03 0.07 0.22 0.26 0.24 0.17 0.13 0.12 0.12 0.08 0.06 0.05 0.06 0.06 0.07
0.02 0.02 0.02 0.02 0.02 0.04 0.13 0.19 0.09 0.06 0.05 0.04 0.03 0.05 0.04 0.06 0.07 0.06 0.04 0.03 0.03 0.02 0.02 0.02 0.02 0.02 0.02 0.02 0.02 0.03 0.04 0.10 0.18 0.17 0.15 0.13 0.11 0.06 0.04 0.04 0.04 0.06 0.07
0.03 0.03 0.03 0.02 0.02 0.04 0.11 0.18 0.13 0.08 0.05 0.03 0.02 0.03 0.04 0.05 0.04 0.03 0.04 0.04 0.03 0.02 0.01 0.01 0.01 0.02 0.03 0.03 0.03 0.04 0.04 0.03 0.06 0.10 0.10 0.10 0.09 0.07 0.05 0.04 0.05 0.07 0.08
0.02 0.02 0.02 0.02 0.01 0.02 0.05 0.11 0.13 0.09 0.05 0.04 0.02 0.02 0.05 0.06 0.04 0.05 0.05 0.04 0.02 0.02 0.01 0.02 0.02 0.02 0.02 0.03 0.03 0.04 0.04 0.03 0.03 0.05 0.06 0.07 0.07 0.08 0.07 0.06 0.07 0.06 0.08
0.02 0.02 0.03 0.03 0.02 0.02 0.03 0.05 0.06 0.05 0.05 0.04 0.03 0.03 0.05 0.06 0.06 0.04 0.03 0.03 0.02 0.02 0.01 0.01 0.01 0.01 0.02 0.03 0.03 0.04 0.04 0.03 0.05 0.05 0.06 0.07 0.06 0.07 0.08 0.08 0.07 0.06 0.07
0.02 0.02 0.03 0.04 0.03 0.03 0.02 0.02 0.03 0.02 0.03 0.04 0.03 0.05 0.06 0.05 0.04 0.03 0.02 0.01 0.01 0.01 0.02 0.01 0.01 0.01 0.02 0.02 0.02 0.03 0.04 0.05 0.08 0.08 0.09 0.07 0.06 0.07 0.07 0.07 0.07 0.07 0.07
0.05 0.03 0.02 0.03 0.03 0.03 0.01 0.02 0.02 0.02 0.04 0.09 0.07 0.05 0.04 0.03 0.04 0.03 0.02 0.01 0.00 0.00 0.01 0.01 0.01 0.02 0.02 0.03 0.03 0.02 0.05 0.06 0.06 0.05 0.06 0.05 0.04 0.06 0.07 0.07 0.08 0.07 0.07
0.03 0.02 0.01 0.02 0.03 0.03 0.02 0.02 0.02 0.02 0.04 0.12 0.19 0.16 0.09 0.04 0.03 0.04 0.03 0.02 0.01 0.01 0.02 0.02 0.03 0.03 0.03 0.04 0.04 0.04 0.04 0.04 0.05 0.06 0.06 0.06 0.06 0.07 0.08 0.08 0.09 0.09 0.09
0.01 0.01 0.01 0.02 0.03 0.02 0.01 0.01 0.01 0.01 0.02 0.06 0.13 0.25 0.21 0.11 0.05 0.03 0.04 0.04 0.03 0.04 0.05 0.03 0.03 0.02 0.02 0.02 0.02 0.02 0.02 0.03 0.04 0.03 0.03 0.04 0.06 0.07 0.08 0.08 0.08 0.08 0.09
0.00 0.00 0.00 0.00 0.01 0.01 0.01 0.01 0.01 0.01 0.02 0.02 0.04 0.12 0.19 0.12 0.04 0.02 0.02 0.03 0.03 0.04 0.04 0.03 0.02 0.02 0.03 0.03 0.03 0.02 0.02 0.02 0.02 0.02 0.03 0.05 0.05 0.05 0.06 0.05 0.05 0.06 0.07
0.00 0.00 0.00 0.00 0.00 0.00 0.01 0.01 0.01 0.01 0.01 0.01 0.01 0.03 0.06 0.05 0.01 0.01 0.01 0.02 0.03 0.02 0.02 0.03 0.02 0.02 0.04 0.04 0.02 0.02 0.02 0.02 0.02 0.02 0.03 0.03 0.03 0.04 0.07 0.07 0.05 0.04 0.04
0.00 0.00 0.00 0.00 0.00 0.00 0.00 0.00 0.00 0.01 0.01 0.01 0.01 0.01 0.01 0.01 0.00 0.00 0.01 0.01 0.01 0.01 0.02 0.03 0.02 0.02 0.02 0.03 0.02 0.01 0.01 0.02 0.02 0.03 0.03 0.03 0.03 0.03 0.07 0.12 0.10 0.06 0.03
0.00 0.00 0.00 0.00 0.00 0.00 0.00 0.00 0.01 0.01 0.02 0.02 0.01 0.01 0.00 0.00 0.00 0.00 0.00 0.01 0.01 0.01 0.02 0.03 0.02 0.03 0.03 0.04 0.02 0.01 0.02 0.03 0.02 0.02 0.01 0.02 0.03 0.06 0.09 0.15 0.17 0.13 0.09
0.01 0.00 0.00 0.00 0.00 0.00 0.01 0.01 0.01 0.01 0.01 0.02 0.02 0.01 0.01 0.00 0.00 0.00 0.01 0.01 0.01 0.01 0.01 0.01 0.01 0.03 0.02 0.03 0.02 0.02 0.02 0.03 0.02 0.03 0.03 0.03 0.03 0.05 0.09 0.10 0.10 0.11 0.09
0.01 0.00 0.00 0.01 0.00 0.01 0.01 0.01 0.00 0.01 0.01 0.02 0.02 0.01 0.01 0.00 0.00 0.01 0.01 0.01 0.01 0.01 0.01 0.01 0.01 0.02 0.02 0.02 0.02 0.02 0.01 0.02 0.01 0.02 0.02 0.03 0.03 0.03 0.04 0.05 0.06 0.05 0.05
0.00 0.00 0.00 0.00 0.00 0.01 0.00 0.01 0.00 0.00 0.01 0.01 0.01 0.01 0.01 0.00 0.00 0.01 0.01 0.02 0.02 0.01 0.01 0.01 0.02 0.02 0.02 0.01 0.02 0.01 0.01 0.01 0.01 0.01 0.01 0.02 0.03 0.03 0.02 0.03 0.04 0.04 0.04
0.01 0.00 0.00 0.00 0.00 0.00 0.01 0.00 0.00 0.00 0.00 0.00 0.00 0.01 0.01 0.01 0.01 0.00 0.01 0.01 0.01 0.01 0.01 0.00 0.01 0.01 0.01 0.01 0.02 0.03 0.02 0.02 0.02 0.01 0.02 0.02 0.02 0.02 0.01 0.01 0.02 0.03 0.03
0.02 0.01 0.00 0.00 0.00 0.00 0.01 0.01 0.01 0.02 0.01 0.00 0.00 0.01 0.00 0.01 0.01 0.01 0.00 0.00 0.00 0.01 0.01 0.01 0.01 0.01 0.02 0.02 0.02 0.03 0.03 0.04 0.03 0.02 0.02 0.02 0.03 0.02 0.01 0.01 0.02 0.03 0.04
0.01 0.01 0.00 0.00 0.00 0.00 0.00 0.01 0.01 0.01 0.01 0.01 0.00 0.00 0.00 0.00 0.01 0.01 0.00 0.00 0.00 0.00 0.00 0.01 0.01 0.01 0.02 0.02 0.02 0.02 0.02 0.03 0.04 0.03 0.03 0.02 0.02 0.02 0.02 0.02 0.02 0.02 0.03
0.03 0.02 0.00 0.00 0.01 0.00 0.00 0.01 0.02 0.01 0.01 0.01 0.00 0.01 0.01 0.00 0.00 0.00 0.00 0.00 0.00 0.00 0.00 0.00 0.00 0.01 0.01 0.01 0.01 0.01 0.01 0.02 0.03 0.03 0.02 0.02 0.02 0.02 0.02 0.02 0.02 0.01 0.02
0.03 0.02 0.02 0.02 0.02 0.00 0.00 0.00 0.01 0.00 0.01 0.02 0.01 0.01 0.01 0.00 0.00 0.00 0.00 0.00 0.00 0.00 0.00 0.01 0.01 0.01 0.01 0.01 0.01 0.01 0.01 0.01 0.02 0.02 0.02 0.02 0.02 0.02 0.02 0.02 0.01 0.02 0.02
MSLP
1009.42 1009.32 1009.36 1009.55 1009.86 1010.22 1010.55 1010.81 1010.97 1011.02 1011.00 1010.96 1010.96 1011.01 1011.14 1011.32 1011.53 1011.74 1011.93 1012.08 1012.20 1012.30 1012.41 1012.53 1012.67 1012.82 1012.95 1013.06 1013.12 1013.14 1013.12 1013.09 1013.05 1013.03 1013.03 1013.04 1013.05 1013.05 1013.03 1012.98 1012.92 1012.85 1012.79
1009.24 1009.22 1009.34 1009.62 1010.00 1010.40 1010.77 1011.03 1011.17 1011.21 1011.19 1011.16 1011.17 1011.26 1011.43 1011.65 1011.88 1012.10 1012.29 1012.42 1012.53 1012.62 1012.73 1012.86 1013.01 1013.17 1013.30 1013.40 1013.45 1013.44 1013.39 1013.34 1013.29 1013.28 1013.29 1013.33 1013.38 1013.41 1013.40 1013.36 1013.28 1013.19 1013.10
1009.08 1009.12 1009.32 1009.67 1010.10 1010.55 1010.94 1011.22 1011.37 1011.41 1011.40 1011.38 1011.43 1011.55 1011.75 1011.99 1012.24 1012.46 1012.64 1012.76 1012.85 1012.93 1013.04 1013.17 1013.33 1013.48 1013.62 1013.71 1013.73 1013.70 1013.64 1013.58 1013.54 1013.54 1013.59 1013.66 1013.74 1013.80 1013.81 1013.77 1013.68 1013.57 1013.45
1008.93 1009.04 1009.31 1009.72 1010.21 1010.70 1011.11 1011.41 1011.57 1011.62 1011.63 1011.64 1011.71 1011.86 1012.08 1012.34 1012.60 1012.82 1012.98 1013.09 1013.17 1013.25 1013.36 1013.49 1013.65 1013.80 1013.93 1014.00 1014.02 1013.98 1013.91 1013.85 1013.82 1013.85 1013.93 1014.04 1014.14 1014.22 1014.24 1014.19 1014.09 1013.97 1013.83
1008.84 1009.00 1009.32 1009.79 1010.32 1010.85 1011.29 1011.61 1011.79 1011.86 1011.89 1011.92 1012.02 1012.19 1012.42 1012.69 1012.95 1013.17 1013.33 1013.44 1013.52 1013.60 1013.71 1013.85 1014.00 1014.15 1014.27 1014.33 1014.33 1014.28 1014.22 1014.17 1014.17 1014.23 1014.34 1014.47 1014.59 1014.66 1014.67 1014.62 1014.50 1014.36 1014.21
1008.80 1009.01 1009.38 1009.88 1010.46 1011.02 1011.49 1011.83 1012.03 1012.13 1012.18 1012.23 1012.34 1012.53 1012.77 1013.04 1013.30 1013.52 1013.69 1013.81 1013.90 1014.00 1014.11 1014.25 1014.41 1014.55 1014.65 1014.70 1014.69 1014.65 1014.60 1014.57 1014.59 1014.68 1014.80 1014.95 1015.06 1015.13 1015.12 1015.03 1014.89 1014.73 1014.58
1008.81 1009.05 1009.46 1010.00 1010.60 1011.19 1011.69 1012.06 1012.28 1012.41 1012.48 1012.55 1012.68 1012.87 1013.11 1013.39 1013.65 1013.88 1014.06 1014.20 1014.32 1014.43 1014.56 1014.70 1014.85 1014.97 1015.06 1015.10 1015.09 1015.05 1015.02 1015.02 1015.08 1015.19 1015.33 1015.47 1015.57 1015.61 1015.56 1015.44 1015.27 1015.09 1014.94
1008.87 1009.13 1009.55 1010.11 1010.74 1011.34 1011.86 1012.25 1012.51 1012.66 1012.76 1012.86 1013.00 1013.20 1013.45 1013.73 1014.00 1014.24 1014.44 1014.60 1014.74 1014.88 1015.01 1015.16 1015.29 1015.40 1015.48 1015.50 1015.50 1015.48 1015.48 1015.52 1015.60 1015.74 1015.89 1016.03 1016.11 1016.11 1016.02 1015.86 1015.66 1015.47 1015.31
1008.95 1009.21 1009.64 1010.20 1010.82 1011.44 1011.97 1012.38 1012.67 1012.86 1012.99 1013.12 1013.28 1013.50 1013.76 1014.05 1014.33 1014.59 1014.82 1015.00 1015.16 1015.31 1015.45 1015.58 1015.70 1015.79 1015.85 1015.88 1015.88 1015.89 1015.93 1016.01 1016.14 1016.31 1016.48 1016.61 1016.68 1016.64 1016.52 1016.32 1016.10 1015.89 1015.73
1009.01 1009.27 1009.69 1010.23 1010.84 1011.44 1011.98 1012.41 1012.72 1012.95 1013.13 1013.30 1013.50 1013.74 1014.02 1014.33 1014.64 1014.92 1015.16 1015.36 1015.54 1015.69 1015.82 1015.94 1016.04 1016.12 1016.17 1016.20 1016.23 1016.27 1016.36 1016.50 1016.68 1016.88 1017.07 1017.21 1017.26 1017.21 1017.06 1016.84 1016.60 1016.38 1016.22
1009.05 1009.30 1009.69 1010.20 1010.77 1011.35 1011.88 1012.32 1012.66 1012.93 1013.15 1013.37 1013.62 1013.90 1014.22 1014.55 1014.88 1015.19 1015.45 1015.67 1015.85 1016.00 1016.13 1016.23 1016.31 1016.37 1016.42 1016.46 1016.53 1016.62 1016.76 1016.96 1017.19 1017.43 1017.65 1017.80 1017.86 1017.81 1017.65 1017.43 1017.19 1016.96 1016.80
1009.04 1009.28 1009.64 1010.11 1010.65 1011.19 1011.69 1012.13 1012.50 1012.80 1013.07 1013.34 1013.64 1013.97 1014.33 1014.70 1015.06 1015.39 1015.68 1015.92 1016.10 1016.25 1016.37 1016.45 1016.52 1016.58 1016.64 1016.70 1016.80 1016.95 1017.15 1017.40 1017.68 1017.96 1018.20 1018.37 1018.45 1018.41 1018.27 1018.07 1017.84 1017.62 1017.45
1008.98 1009.22 1009.56 1009.99 1010.48 1010.98 1011.46 1011.89 1012.27 1012.60 1012.91 1013.23 1013.57 1013.94 1014.34 1014.75 1015.15 1015.52 1015.83 1016.09 1016.29 1016.45 1016.57 1016.65 1016.72 1016.78 1016.86 1016.96 1017.10 1017.30 1017.55 1017.84 1018.15 1018.46 1018.72 1018.91 1018.99 1018.98 1018.87 1018.71 1018.51 1018.32 1018.16
1008.86 1009.12 1009.46 1009.87 1010.32 1010.79 1011.24 1011.66 1012.04 1012.39 1012.73 1013.08 1013.45 1013.86 1014.29 1014.73 1015.16 1015.56 1015.92 1016.21 1016.44 1016.62 1016.75 1016.85 1016.94 1017.03 1017.14 1017.28 1017.46 1017.70 1017.98 1018.30 1018.63 1018.93 1019.19 1019.38 1019.48 1019.49 1019.42 1019.30 1019.15 1019.00 1018.87
1008.68 1008.99 1009.35 1009.76 1010.20 1010.66 1011.10 1011.51 1011.89 1012.24 1012.59 1012.95 1013.33 1013.75 1014.19 1014.65 1015.12 1015.55 1015.94 1016.28 1016.56 1016.78 1016.95 1017.09 1017.22 1017.35 1017.50 1017.69 1017.91 1018.18 1018.48 1018.80 1019.11 1019.40 1019.63 1019.80 1019.89 1019.91 1019.88 1019.81 1019.72 1019.62 1019.52
1008.45 1008.83 1009.23 1009.68 1010.15 1010.62 1011.07 1011.49 1011.87 1012.22 1012.56 1012.90 1013.26 1013.66 1014.09 1014.56 1015.03 1015.50 1015.94 1016.33 1016.67 1016.96 1017.19 1017.39 1017.58 1017.76 1017.97 1018.20 1018.46 1018.74 1019.04 1019.34 1019.62 1019.85 1020.03 1020.15 1020.22 1020.24 1020.24 1020.21 1020.17 1020.13 1020.08
1008.17 1008.62 1009.11 1009.62 1010.15 1010.67 1011.16 1011.61 1012.00 1012.35 1012.66 1012.97 1013.28 1013.64 1014.04 1014.48 1014.95 1015.44 1015.92 1016.38 1016.79 1017.15 1017.46 1017.74 1017.99 1018.24 1018.50 1018.77 1019.06 1019.36 1019.65 1019.91 1020.14 1020.31 1020.42 1020.48 1020.51 1020.51 1020.51 1020.51 1020.53 1020.54 1020.54
1007.85 1008.38 1008.95 1009.56 1010.17 1010.78 1011.34 1011.84 1012.27 1012.62 1012.91 1013.17 1013.43 1013.71 1014.05 1014.45 1014.91 1015.41 1015.93 1016.44 1016.92 1017.36 1017.75 1018.10 1018.43 1018.74 1019.05 1019.36 1019.68 1019.98 1020.26 1020.49 1020.66 1020.77 1020.81 1020.81 1020.78 1020.75 1020.74 1020.76 1020.80 1020.86 1020.91
1007.51 1008.11 1008.76 1009.46 1010.18 1010.89 1011.56 1012.14 1012.62 1012.99 1013.27 1013.48 1013.68 1013.89 1014.16 1014.51 1014.93 1015.43 1015.97 1016.52 1017.06 1017.57 1018.04 1018.46 1018.85 1019.21 1019.57 1019.91 1020.25 1020.56 1020.83 1021.04 1021.18 1021.24 1021.23 1021.17 1021.09 1021.02 1020.99 1021.00 1021.06 1021.15 1021.23
1007.17 1007.81 1008.53 1009.31 1010.13 1010.96 1011.73 1012.41 1012.96 1013.38 1013.67 1013.86 1014.00 1014.15 1014.36 1014.65 1015.03 1015.51 1016.06 1016.64 1017.23 1017.79 1018.30 1018.77 1019.21 1019.60 1019.99 1020.36 1020.71 1021.04 1021.32 1021.53 1021.66 1021.70 1021.66 1021.57 1021.46 1021.36 1021.30 1021.29 1021.34 1021.43 1021.53
1006.85 1007.50 1008.24 1009.09 1009.99 1010.92 1011.80 1012.58 1013.23 1013.71 1014.03 1014.23 1014.35 1014.46 1014.62 1014.86 1015.21 1015.66 1016.21 1016.80 1017.41 1017.99 1018.53 1019.03 1019.47 1019.89 1020.28 1020.66 1021.03 1021.37 1021.68 1021.91 1022.07 1022.13 1022.10 1022.02 1021.90 1021.78 1021.69 1021.66 1021.68 1021.75 1021.84
1006.58 1007.19 1007.93 1008.80 1009.75 1010.74 1011.72 1012.60 1013.34 1013.91 1014.30 1014.53 1014.67 1014.77 1014.90 1015.11 1015.43 1015.87 1016.40 1016.99 1017.59 1018.18 1018.72 1019.21 1019.65 1020.05 1020.43 1020.81 1021.19 1021.55 1021.89 1022.17 1022.38 1022.49 1022.52 1022.47 1022.37 1022.26 1022.15 1022.09 1022.07 1022.10 1022.16
1006.34 1006.91 1007.60 1008.44 1009.40 1010.43 1011.47 1012.43 1013.27 1013.93 1014.40 1014.70 1014.89 1015.02 1015.16 1015.37 1015.68 1016.10 1016.61 1017.18 1017.77 1018.34 1018.86 1019.32 1019.72 1020.10 1020.45 1020.82 1021.19 1021.57 1021.95 1022.28 1022.56 1022.76 1022.86 1022.88 1022.83 1022.74 1022.64 1022.54 1022.48 1022.46 1022.47
1006.14 1006.64 1007.27 1008.06 1008.98 1010.00 1011.06 1012.08 1012.99 1013.74 1014.31 1014.71 1014.97 1015.16 1015.35 1015.58 1015.89 1016.30 1016.80 1017.35 1017.91 1018.45 1018.93 1019.36 1019.72 1020.06 1020.38 1020.72 1021.08 1021.47 1021.87 1022.26 1022.61 1022.89 1023.09 1023.19 1023.21 1023.16 1023.07 1022.97 1022.87 1022.79 1022.74
1005.94 1006.38 1006.94 1007.65 1008.51 1009.49 1010.54 1011.59 1012.55 1013.39 1014.05 1014.55 1014.91 1015.18 1015.43 1015.70 1016.03 1016.44 1016.93 1017.45 1017.99 1018.49 1018.95 1019.33 1019.67 1019.96 1020.25 1020.55 1020.90 1021.28 1021.70 1022.13 1022.54 1022.89 1023.17 1023.35 1023.45 1023.45 1023.39 1023.29 1023.17 1023.05 1022.95
1005.70 1006.11 1006.60 1007.24 1008.03 1008.95 1009.96 1011.00 1012.00 1012.89 1013.64 1014.24 1014.69 1015.06 1015.37 1015.69 1016.05 1016.47 1016.95 1017.46 1017.97 1018.46 1018.89 1019.25 1019.57 1019.83 1020.09 1020.38 1020.70 1021.07 1021.48 1021.92 1022.36 1022.77 1023.11 1023.36 1023.52 1023.58 1023.56 1023.48 1023.35 1023.21 1023.08
Thickness
5772 5773 5773 5772 5773 5773 5773 5773 5773 5774 5773 5774 5774 5774 5774 5774 5774 5774 5774 5774 5775 5775 5775 5775 5776 5776 5776 5776 5777 5777 5775 5775 5775 5774 5774 5774 5774 5773 5773 5773 5774 5774 5774
5773 5772 5771 5771 5770 5770 5770 5770 5771 5771 5770 5771 5771 5771 5771 5772 5771 5772 5772 5772 5772 5773 5773 5773 5773 5773 5773 5773 5773 5773 5772 5772 5773 5772 5772 5771 5771 5771 5771 5771 5771 5771 5771
5772 5771 5769 5768 5768 5768 5768 5768 5768 5767 5767 5767 5767 5768 5768 5768 5768 5768 5769 5769 5769 5770 5770 5770 5770 5770 5770 5770 5770 5770 5770 5770 5770 5770 5770 5769 5769 5768 5768 5768 5768 5769 5769
5771 5769 5767 5766 5765 5765 5765 5764 5764 5764 5764 5764 5764 5764 5765 5765 5765 5765 5765 5766 5766 5766 5767 5767 5767 5767 5767 5767 5768 5768 5768 5768 5767 5767 5767 5766 5766 5765 5765 5765 5765 5766 5766
5769 5766 5764 5763 5762 5762 5762 5761 5761 5760 5760 5760 5760 5760 5761 5761 5762 5762 5762 5762 5762 5763 5763 5763 5763 5764 5764 5764 5764 5765 5766 5765 5764 5764 5763 5762 5762 5762 5761 5762 5762 5763 5763
5765 5763 5761 5760 5759 5759 5759 5759 5758 5758 5757 5757 5756 5757 5757 5758 5758 5758 5758 5758 5758 5759 5759 5759 5760 5760 5760 5761 5761 5761 5761 5760 5760 5760 5759 5759 5758 5758 5758 5758 5759 5759 5760
5762 5761 5759 5757 5756 5755 5755 5756 5757 5756 5754 5753 5753 5753 5754 5754 5754 5755 5755 5755 5755 5755 5755 5755 5756 5756 5757 5757 5757 5757 5757 5757 5757 5756 5756 5755 5754 5754 5755 5755 5755 5756 5756
5760 5758 5756 5754 5753 5752 5752 5752 5753 5752 5751 5750 5750 5750 5750 5750 5750 5751 5751 5751 5751 5751 5751 5751 5752 5752 5753 5753 5754 5754 5754 5754 5754 5753 5752 5751 5751 5751 5751 5751 5752 5752 5753
5758 5756 5754 5752 5750 5749 5749 5748 5748 5748 5748 5747 5747 5747 5747 5747 5747 5747 5747 5747 5747 5747 5747 5747 5748 5748 5749 5750 5750 5750 5750 5750 5749 5749 5748 5746 5746 5747 5747 5747 5747 5748 5749
5755 5754 5752 5750 5749 5747 5746 5745 5745 5745 5745 5744 5744 5744 5744 5744 5744 5743 5743 5743 5744 5744 5744 5744 5744 5745 5745 5746 5746 5747 5746 5746 5745 5744 5743 5742 5742 5743 5743 5743 5743 5744 5745
5750 5750 5750 5749 5748 5746 5745 5743 5743 5742 5742 5742 5742 5742 5741 5741 5741 5741 5740 5740 5740 5741 5741 5741 5741 5741 5742 5742 5743 5743 5743 5742 5741 5740 5739 5738 5738 5738 5738 5738 5739 5739 5740
5744 5746 5747 5746 5746 5745 5744 5741 5741 5741 5740 5740 5740 5740 5740 5740 5739 5738 5737 5737 5737 5737 5738 5737 5738 5738 5738 5738 5739 5738 5738 5738 5737 5736 5735 5734 5734 5734 5734 5734 5735 5735 5736
5742 5743 5744 5744 5743 5742 5741 5740 5739 5739 5738 5738 5738 5738 5739 5738 5736 5735 5734 5734 5734 5734 5735 5735 5734 5735 5735 5735 5735 5734 5734 5734 5732 5731 5730 5730 5730 5729 5729 5729 5730 5730 5731
5739 5739 5741 5742 5741 5740 5739 5738 5737 5736 5735 5735 5735 5736 5736 5734 5733 5732 5732 5731 5731 5731 5732 5732 5732 5732 5732 5732 5731 5731 5730 5729 5727 5727 5725 5725 5725 5725 5725 5725 5725 5725 5726
5736 5736 5737 5738 5737 5737 5736 5735 5734 5732 5732 5731 5731 5732 5731 5730 5729 5729 5728 5728 5728 5728 5728 5728 5728 5728 5727 5727 5727 5726 5725 5724 5723 5722 5721 5721 5720 5720 5720 5720 5720 5720 5721
5734 5733 5734 5735 5734 5733 5732 5731 5730 5729 5728 5727 5727 5727 5727 5727 5726 5725 5724 5724 5724 5724 5724 5724 5724 5723 5722 5721 5721 5721 5720 5720 5719 5718 5717 5716 5716 5716 5716 5715 5715 5715 5716
5733 5732 5731 5732 5731 5730 5728 5728 5726 5725 5724 5723 5722 5722 5723 5722 5722 5721 5720 5719 5719 5719 5719 5719 5718 5717 5716 5716 5715 5715 5715 5715 5714 5714 5713 5712 5711 5711 5711 5711 5711 5711 5711
5731 5729 5728 5729 5727 5725 5724 5723 5722 5721 5719 5718 5717 5717 5717 5717 5716 5715 5715 5714 5715 5714 5714 5713 5711 5709 5709 5708 5708 5709 5709 5709 5710 5709 5709 5708 5707 5707 5706 5705 5705 5705 5706
5729 5726 5724 5724 5722 5721 5720 5718 5717 5716 5714 5713 5712 5712 5712 5711 5711 5710 5709 5709 5709 5708 5708 5707 5705 5704 5702 5702 5702 5703 5704 5704 5704 5705 5704 5704 5703 5702 5701 5701 5700 5700 5700
5726 5724 5722 5720 5719 5717 5716 5714 5712 5710 5709 5708 5706 5706 5706 5706 5705 5704 5704 5704 5703 5702 5701 5700 5699 5699 5698 5698 5699 5698 5698 5699 5699 5698 5698 5698 5698 5698 5697 5697 5696 5695 5695
5723 5721 5719 5716 5715 5713 5710 5707 5704 5702 5702 5702 5702 5701 5701 5701 5700 5699 5698 5698 5697 5695 5695 5695 5694 5692 5692 5693 5691 5689 5691 5693 5693 5693 5693 5692 5692 5693 5693 5692 5691 5691 5690
5719 5717 5716 5714 5712 5710 5707 5705 5703 5700 5699 5698 5697 5697 5696 5696 5695 5695 5693 5692 5692 5690 5689 5689 5688 5685 5686 5687 5684 5680 5677 5679 5683 5686 5686 5685 5685 5687 5687 5687 5686 5686 5685
5716 5715 5714 5711 5710 5708 5705 5702 5700 5697 5694 5692 5691 5690 5691 5691 5690 5690 5689 5688 5687 5686 5684 5683 5683 5680 5677 5680 5681 5676 5669 5666 5670 5675 5678 5678 5679 5679 5680 5681 5681 5681 5681
5714 5714 5712 5710 5708 5705 5703 5698 5694 5690 5687 5688 5687 5687 5687 5687 5686 5684 5684 5683 5682 5681 5679 5679 5678 5676 5674 5671 5673 5673 5672 5669 5664 5662 5667 5670 5672 5672 5673 5675 5675 5675 5675
5713 5711 5709 5707 5704 5702 5700 5697 5693 5689 5687 5686 5686 5683 5682 5682 5681 5679 5678 5678 5676 5675 5674 5673 5672 5671 5670 5667 5666 5665 5665 5665 5664 5659 5656 5659 5662 5665 5667 5668 5669 5669 5669
5709 5707 5706 5702 5699 5698 5696 5694 5690 5687 5684 5682 5680 5678 5677 5676 5675 5674 5674 5673 5671 5670 5669 5668 5667 5666 5665 5664 5662 5661 5659 5656 5655 5654 5652 5652 5653 5656 5660 5661 5662 5663 5663